Location: Hopewell Observatory
(38.8698°N, 77.6988°W)
Time: 12:28:07
(UTC-05:00)

Amateur Radio Satellites - All Passes

Search period start: 24 January 2017 11:58
Search period end: 25 January 2017 11:58
Location: Hopewell Observatory, 38.8698°N, 77.6988°W

Satellite Date Start Highest point End Downlink Frequencies (MHz)
Time Altitude Azimuth
NANOSAT C BR1 24 Jan 12:03:43 12:06:59 22° 265° (W) 12:10:16 145.865
ESTCUBE 1 24 Jan 12:04:41 12:09:07 56° 287° (WNW) 12:13:31 437.505/2401.250
UKube-1 24 Jan 12:05:33 12:08:14 16° 93° (E) 12:10:54 .
BUGSAT 1 24 Jan 12:11:20 12:15:18 55° 259° (W) 12:19:16 437.445
Oscar 19 24 Jan 12:11:46 12:16:30 37° 69° (ENE) 12:21:16 437.125/150
JAS-2 24 Jan 12:12:12 12:13:49 11° 274° (W) 12:15:29 435.910
DX 1 24 Jan 12:14:29 12:18:14 28° 97° (E) 12:21:58 434.975-435.025
BY70-1 24 Jan 12:15:19 12:16:24 11° 294° (WNW) 12:17:28 436.1900
CUBEBUG 1 24 Jan 12:31:48 12:35:56 46° 287° (WNW) 12:40:03 437.445
AO-85 24 Jan 12:50:05 12:54:52 84° 121° (ESE) 12:59:17 145.980
AO-7 24 Jan 12:53:52 12:58:54 18° 51° (NE) 13:03:56 29.400- 29.500
JUGNU 24 Jan 12:57:25 12:58:19 10° 174° (S) 12:59:12 437.505
50 SAT 24 Jan 12:59:28 13:02:46 38° 287° (WNW) 13:06:02 437.505
AISAT 24 Jan 13:00:11 13:04:12 36° 289° (WNW) 13:08:12 437.250
Gurwin Techsat 1B 24 Jan 13:01:03 13:06:15 58° 73° (ENE) 13:11:28 435.225
TISAT 1 24 Jan 13:05:02 13:08:22 23° 95° (E) 13:11:42 437.305
ITAMSAT 1 24 Jan 13:07:13 13:09:35 13° 60° (ENE) 13:11:56 435.822/435.867
DANDE 24 Jan 13:24:28 13:31:11 28° 69° (ENE) 13:37:59 436.750
SPROUT 24 Jan 13:28:45 13:32:10 24° 291° (WNW) 13:35:35 437.525
CUSAT 1 24 Jan 13:32:17 13:40:15 71° 78° (ENE) 13:47:10 437.405
VELOX 1 24 Jan 13:34:11 13:37:07 18° 294° (WNW) 13:40:03 145.980
UKube-1 24 Jan 13:40:23 13:44:25 40° 289° (WNW) 13:48:26 .
Cosmos 2491 24 Jan 13:43:26 13:51:58 58° 270° (W) 14:00:31 435.465 / 435.565
YUBILEINY 24 Jan 13:45:12 13:53:56 71° 93° (E) 14:02:44 435.215
AIST 1 24 Jan 13:45:24 13:49:43 62° 279° (W) 13:54:02
ITUPSAT 1 24 Jan 13:47:16 13:49:33 13° 91° (E) 13:51:50 437.325
DX 1 24 Jan 13:50:50 13:54:16 23° 292° (WNW) 13:57:42 434.975-435.025
Oscar 19 24 Jan 13:51:38 13:55:52 25° 265° (W) 14:00:07 437.125/150
Cosmos 2504 24 Jan 14:05:13 14:13:30 53° 91° (E) 14:21:17 435.465 / 435.565
BEESAT 24 Jan 14:17:17 14:21:26 28° 97° (E) 14:25:32 436.000
SWISSCUBE 24 Jan 14:19:16 14:23:37 33° 97° (E) 14:27:56 437.505
AO-85 24 Jan 14:33:40 14:35:45 13° 316° (NW) 14:37:47 145.980
O/OREOS (USA 219) 24 Jan 14:38:43 14:42:27 25° 60° (ENE) 14:46:10 437.305
BEESAT 3 24 Jan 14:39:07 14:42:38 34° 115° (ESE) 14:46:13 437.485
TISAT 1 24 Jan 14:40:25 14:43:57 27° 290° (WNW) 14:47:28 437.305
AO-7 24 Jan 14:42:01 14:50:21 79° 70° (ENE) 14:58:45 29.400- 29.500
ITAMSAT 1 24 Jan 14:43:12 14:48:21 77° 257° (WSW) 14:53:33 435.822/435.867
Gurwin Techsat 1B 24 Jan 14:43:20 14:46:33 16° 268° (W) 14:49:48 435.225
JUGNU 24 Jan 14:45:18 14:46:22 10° 185° (S) 14:47:27 437.505
BRITE-PL 24 Jan 14:54:47 14:57:39 14° 62° (ENE) 15:00:29 437.365/2234.400
DANDE 24 Jan 15:06:19 15:14:25 69° 265° (W) 15:22:33 436.750
MOZHAYETS 4 24 Jan 15:09:41 15:13:49 31° 96° (E) 15:17:55
CUSAT 1 24 Jan 15:15:37 15:21:15 22° 278° (W) 15:26:25 437.405
ITUPSAT 1 24 Jan 15:22:59 15:27:44 60° 286° (WNW) 15:32:28 437.325
BEESAT 2 24 Jan 15:33:34 15:37:26 61° 117° (ESE) 15:41:22 435.950
SO-50 24 Jan 15:39:36 15:44:06 67° 57° (ENE) 15:48:31 436.795
YUBILEINY 24 Jan 15:44:43 15:51:30 24° 293° (WNW) 15:58:22 435.215
BEESAT 24 Jan 15:55:02 15:59:07 28° 292° (WNW) 16:03:11 436.000
M-CUBED/EXP-1 PRIME 24 Jan 15:55:25 15:57:46 18° 100° (E) 16:00:04 437.505
SWISSCUBE 24 Jan 15:57:21 16:01:12 25° 293° (WNW) 16:05:03 437.505
STARS 24 Jan 15:58:12 16:00:05 12° 92° (E) 16:01:57 437.465
Cosmos 2504 24 Jan 15:59:45 16:07:06 31° 287° (WNW) 16:14:07 435.465 / 435.565
CUBESAT XI-V 24 Jan 16:08:22 16:11:45 20° 93° (E) 16:15:07 437.345
GOMX 1 24 Jan 16:11:21 16:15:49 28° 69° (ENE) 16:20:07 467.674
BEESAT 3 24 Jan 16:17:25 16:20:20 20° 312° (NW) 16:23:18 437.485
O/OREOS (USA 219) 24 Jan 16:17:54 16:21:49 30° 256° (WSW) 16:25:45 437.305
SRMSAT 24 Jan 16:22:35 16:24:33 12° 180° (S) 16:26:31 437.500
AUBIESAT-1 24 Jan 16:27:25 16:30:32 39° 104° (ESE) 16:33:39 437.475
CUTE-I 24 Jan 16:28:38 16:32:11 19° 63° (ENE) 16:35:45 437.470
DOVE 4 24 Jan 16:28:38 16:31:25 15° 66° (ENE) 16:34:07 437.250
BRITE-PL 24 Jan 16:29:42 16:35:25 82° 258° (WSW) 16:41:00 437.365/2234.400
AO-7 24 Jan 16:38:01 16:43:52 21° 267° (W) 16:49:46 29.400- 29.500
MOZHAYETS 4 24 Jan 16:47:03 16:50:48 25° 292° (WNW) 16:54:32
KKS-1 24 Jan 16:52:17 16:56:40 67° 286° (WNW) 17:01:03 437.445
DANDE 24 Jan 16:52:36 16:55:48 13° 281° (WNW) 16:59:02 436.750
LilacSat-2 24 Jan 16:54:00 16:57:04 24° 70° (ENE) 17:00:11 437.200
HORYU 2 24 Jan 16:58:04 17:02:28 88° 256° (WSW) 17:06:54 437.375
NOAA 15 24 Jan 17:03:51 17:08:45 40° 70° (ENE) 17:13:42 137.62
Cubesat XI-IV 24 Jan 17:11:36 17:16:37 45° 70° (ENE) 17:21:39 437.490
HO-68 24 Jan 17:13:07 17:17:01 16° 55° (NE) 17:20:56 435.675
BEESAT 2 24 Jan 17:13:31 17:15:35 14° 316° (NW) 17:17:42 435.950
SO-50 24 Jan 17:22:24 17:23:57 12° 253° (WSW) 17:25:29 436.795
CINEMA 3 24 Jan 17:24:41 17:26:04 11° 65° (ENE) 17:27:27 145.822/145.860
M-CUBED/EXP-1 PRIME 24 Jan 17:29:45 17:32:13 20° 295° (WNW) 17:34:37 437.505
STARS 24 Jan 17:32:28 17:36:43 53° 287° (WNW) 17:40:58 437.465
CUBESAT XI-V 24 Jan 17:44:55 17:49:14 38° 289° (WNW) 17:53:32 437.345
GOMX 1 24 Jan 17:48:56 17:53:45 34° 263° (W) 17:58:22 467.674
CANX-2 24 Jan 17:53:13 17:55:44 15° 66° (ENE) 17:58:14 2200.000
NOAA 18 24 Jan 17:53:35 17:58:59 62° 72° (ENE) 18:04:24 137.9125
DOVE 4 24 Jan 18:03:53 18:08:43 55° 260° (W) 18:13:17 437.250
AUBIESAT-1 24 Jan 18:04:06 18:04:37 10° 300° (WNW) 18:05:07 437.475
CUTE-I 24 Jan 18:06:35 18:11:46 55° 259° (W) 18:16:59 437.470
Cosmos 2499 24 Jan 18:06:38 18:13:15 27° 85° (E) 18:19:31 435.465 / 435.565
STRAND 1 24 Jan 18:11:18 18:12:14 10° 89° (E) 18:13:10 437.568
AIST 2 24 Jan 18:12:53 18:16:54 59° 118° (ESE) 18:21:01 435.215
LilacSat-2 24 Jan 18:28:29 18:31:19 20° 266° (W) 18:34:10 437.200
GONETS M04 24 Jan 18:34:36 18:42:10 35° 85° (E) 18:49:48
NOAA 15 24 Jan 18:44:25 18:48:37 24° 265° (W) 18:52:52 137.62
Cubesat XI-IV 24 Jan 18:52:53 18:56:51 21° 266° (W) 19:00:52 437.490
HO-68 24 Jan 18:56:27 19:03:38 82° 73° (ENE) 19:10:53 435.675
CUTE 1.7 + AOD 2 24 Jan 18:56:37 19:00:50 68° 76° (ENE) 19:05:06 437.475
CINEMA 3 24 Jan 18:58:26 19:02:45 60° 260° (W) 19:06:56 145.822/145.860
CUBEBUG 2 24 Jan 19:21:07 19:25:08 51° 74° (ENE) 19:29:09 437.445
FUNcube-1 24 Jan 19:22:36 19:25:21 18° 67° (ENE) 19:28:08 145.935
COMPASS 1 24 Jan 19:23:59 19:28:06 60° 75° (ENE) 19:32:16 437.405
CANX-2 24 Jan 19:27:07 19:31:11 44° 261° (W) 19:35:17 2200.000
SEEDS 24 Jan 19:27:47 19:32:01 79° 260° (W) 19:36:16 437.485
AAUSAT CUBESAT 2 24 Jan 19:30:21 19:34:25 53° 74° (ENE) 19:38:31 437.432
NOAA 18 24 Jan 19:36:44 19:40:02 16° 268° (W) 19:43:20 137.9125
UWE-3 24 Jan 19:39:20 19:43:21 50° 74° (ENE) 19:47:23 435.000/436.395/437.385
STRAND 1 24 Jan 19:46:49 19:51:59 82° 285° (WNW) 19:57:08 437.568
ZACube-1 24 Jan 19:47:21 19:51:08 36° 72° (ENE) 19:54:58 437.345
ISS 24 Jan 19:50:51 19:53:44 29° 134° (SE) 19:56:37 145.825
AIST 2 24 Jan 19:53:17 19:55:45 15° 315° (NW) 19:58:14 435.215
Cosmos 2499 24 Jan 19:57:46 20:05:55 56° 281° (W) 20:13:31 435.465 / 435.565
DELFI C3 24 Jan 20:06:38 20:09:07 16° 67° (ENE) 20:11:36 145.870
Oscar 11 24 Jan 20:14:08 20:18:23 64° 75° (ENE) 20:22:42 145.826/435.025
GONETS M04 24 Jan 20:30:21 20:38:39 48° 284° (WNW) 20:47:05
HO-68 24 Jan 20:47:47 20:52:04 17° 269° (W) 20:56:24 435.675
PRISM 24 Jan 20:49:16 20:52:26 21° 95° (E) 20:55:34 437.425
HUMSAT D 24 Jan 20:51:22 20:54:54 28° 70° (ENE) 20:58:30 437.325/437.525
FUNcube-1 24 Jan 20:57:32 21:01:18 35° 263° (W) 21:05:09 145.935
CUBEBUG 2 24 Jan 21:00:42 21:02:03 11° 269° (W) 21:03:25 437.445
COMPASS 1 24 Jan 21:03:29 21:04:00 10° 270° (W) 21:04:32 437.405
UNISAT 6 24 Jan 21:07:09 21:08:46 12° 91° (E) 21:10:23 437.425
AAUSAT CUBESAT 2 24 Jan 21:08:47 21:10:11 11° 269° (W) 21:11:36 437.432
TIGRISAT 24 Jan 21:18:07 21:20:39 15° 92° (E) 21:23:13 435.000
UWE-3 24 Jan 21:18:43 21:20:07 11° 269° (W) 21:21:30 435.000/436.395/437.385
AO-85 24 Jan 21:22:56 21:26:41 43° 55° (NE) 21:30:25 145.980
ZACube-1 24 Jan 21:24:55 21:27:33 16° 267° (W) 21:30:12 437.345
ISS 24 Jan 21:27:17 21:30:11 29° 330° (NNW) 21:33:05 145.825
ESTCUBE 1 24 Jan 21:29:26 21:30:45 11° 62° (ENE) 21:32:05 437.505/2401.250
JAS-2 24 Jan 21:33:42 21:37:44 15° 88° (E) 21:41:50 435.910
ANTELSAT 24 Jan 21:33:43 21:37:21 23° 95° (E) 21:41:01 437.575/2403.000
DELFI C3 24 Jan 21:39:52 21:43:36 36° 262° (W) 21:47:21 145.870
RS-15 24 Jan 21:49:25 22:00:00 41° 106° (ESE) 22:10:56 29.354- 29.394
CUBEBUG 1 24 Jan 21:53:14 21:54:31 11° 63° (ENE) 21:55:48 437.445
PCSat 24 Jan 22:07:59 22:08:32 10° 101° (E) 22:09:05 145.827
AISAT 24 Jan 22:21:20 22:23:53 15° 65° (ENE) 22:26:27 437.250
PRISM 24 Jan 22:24:12 22:27:41 27° 291° (WNW) 22:31:08 437.425
BY70-1 24 Jan 22:25:22 22:28:27 90° 32° (NNE) 22:31:43 436.1900
HUMSAT D 24 Jan 22:27:23 22:30:30 21° 266° (W) 22:33:40 437.325/437.525
UNISAT 6 24 Jan 22:41:21 22:45:48 61° 285° (WNW) 22:50:19 437.425
PHONESAT 2.4 24 Jan 22:45:04 22:45:59 12° 149° (SSE) 22:46:52 2401.200-2431.200
SPROUT 24 Jan 22:45:34 22:48:28 18° 67° (ENE) 22:51:21 437.525
VELOX 1 24 Jan 22:52:50 22:56:45 31° 70° (ENE) 23:00:38 145.980
TIGRISAT 24 Jan 22:53:13 22:57:33 49° 287° (WNW) 23:01:58 435.000
BEESAT 3 24 Jan 22:57:34 23:00:11 17° 46° (NE) 23:02:48 437.485
UKube-1 24 Jan 22:59:51 23:01:44 13° 63° (ENE) 23:03:38 .
ESTCUBE 1 24 Jan 23:02:24 23:06:55 73° 258° (WSW) 23:11:28 437.505/2401.250
AO-85 24 Jan 23:04:43 23:06:40 14° 250° (WSW) 23:08:39 145.980
ISS 24 Jan 23:07:00 23:07:30 10° 350° (N) 23:08:00 145.825
QB50P1 24 Jan 23:08:31 23:11:52 22° 95° (E) 23:15:12 145.935-145.965
DX 1 24 Jan 23:09:02 23:12:24 22° 67° (ENE) 23:15:47 434.975-435.025
ANTELSAT 24 Jan 23:10:04 23:14:02 31° 290° (WNW) 23:18:02 437.575/2403.000
POLYITAN 1 24 Jan 23:14:06 23:17:42 26° 96° (E) 23:21:17 437.675
QB50P2 24 Jan 23:15:27 23:19:10 29° 97° (E) 23:22:53 145.880/145.840
JAS-2 24 Jan 23:15:58 23:23:28 84° 104° (ESE) 23:31:21 435.910
CUBEBUG 1 24 Jan 23:25:50 23:30:12 68° 258° (WSW) 23:34:35 437.445
50 SAT 24 Jan 23:32:10 23:35:41 61° 76° (ENE) 23:39:14 437.505
POPSAT HIP 1 24 Jan 23:35:23 23:39:28 45° 99° (E) 23:43:31 437.405
DUCHIFAT 1 24 Jan 23:39:51 23:43:53 43° 99° (E) 23:47:54 145.980
PCSat 24 Jan 23:45:39 23:51:04 89° 110° (ESE) 23:56:31 145.827
NANOSAT C BR1 24 Jan 23:47:59 23:52:10 60° 101° (ESE) 23:56:20 145.865
BEESAT 2 24 Jan 23:52:43 23:56:08 25° 50° (NE) 23:59:31 435.950
AIST 1 24 Jan 23:54:03 23:57:39 26° 76° (ENE) 00:01:13
BUGSAT 1 24 Jan 23:54:40 23:57:47 21° 95° (E) 00:00:55 437.445
AISAT 24 Jan 23:55:38 23:59:56 48° 260° (W) 00:04:14 437.250
TISAT 1 24 Jan 23:56:17 23:58:43 15° 66° (ENE) 00:01:10 437.305
YUBILEINY 24 Jan 23:57:32 00:05:16 33° 71° (ENE) 00:12:52 435.215
RS-15 25 Jan 00:00:13 00:11:56 61° 308° (NW) 00:24:12 29.354- 29.394
Cosmos 2504 25 Jan 00:01:51 00:05:28 14° 63° (ENE) 00:09:01 435.465 / 435.565
PHONESAT 2.4 25 Jan 00:17:10 00:19:22 72° 164° (SSE) 00:21:34 2401.200-2431.200
SPROUT 25 Jan 00:20:11 00:24:06 36° 262° (W) 00:28:02 437.525
Oscar 19 25 Jan 00:26:05 00:28:40 14° 91° (E) 00:31:15 437.125/150
VELOX 1 25 Jan 00:29:42 00:33:11 22° 265° (W) 00:36:41 145.980
UKube-1 25 Jan 00:33:01 00:37:16 57° 260° (W) 00:41:32 .
BEESAT 3 25 Jan 00:34:12 00:38:03 47° 244° (WSW) 00:41:52 437.485
QB50P1 25 Jan 00:43:59 00:47:35 28° 290° (WNW) 00:51:12 145.935-145.965
DX 1 25 Jan 00:44:32 00:48:24 31° 262° (W) 00:52:17 434.975-435.025
ISS 25 Jan 00:44:45 00:45:13 10° 10° (N) 00:45:40 145.825
Cosmos 2491 25 Jan 00:47:08 00:54:44 35° 85° (E) 01:02:20 435.465 / 435.565
POLYITAN 1 25 Jan 00:49:56 00:53:22 24° 291° (WNW) 00:56:48 437.675
QB50P2 25 Jan 00:51:31 00:54:47 22° 292° (WNW) 00:58:03 145.880/145.840
ITUPSAT 1 25 Jan 00:53:05 00:55:39 15° 63° (ENE) 00:58:13 437.325
JAS-2 25 Jan 01:02:33 01:07:42 21° 299° (WNW) 01:13:02 435.910
POPSAT HIP 1 25 Jan 01:12:27 01:14:50 15° 295° (WNW) 01:17:14 437.405
DUCHIFAT 1 25 Jan 01:16:44 01:19:11 15° 294° (WNW) 01:21:38 145.980
Gurwin Techsat 1B 25 Jan 01:19:04 01:23:26 25° 95° (E) 01:27:46 435.225
BEESAT 25 Jan 01:22:30 01:26:34 29° 68° (ENE) 01:30:39 436.000
SWISSCUBE 25 Jan 01:24:27 01:28:42 34° 70° (ENE) 01:33:00 437.505
NANOSAT C BR1 25 Jan 01:25:58 01:27:20 11° 296° (WNW) 01:28:43 145.865
BUGSAT 1 25 Jan 01:29:41 01:33:07 27° 290° (WNW) 01:36:35 437.445
TISAT 1 25 Jan 01:30:02 01:34:00 42° 261° (W) 01:37:58 437.305
BEESAT 2 25 Jan 01:30:24 01:33:52 27° 247° (WSW) 01:37:18 435.950
AIST 1 25 Jan 01:31:47 01:35:04 22° 272° (W) 01:38:20
PCSat 25 Jan 01:32:06 01:35:12 15° 316° (NW) 01:38:19 145.827
PHONESAT 2.4 25 Jan 01:50:57 01:53:07 50° 360° (N) 01:55:17 2401.200-2431.200
Cosmos 2504 25 Jan 01:52:38 01:59:57 90° 254° (WSW) 02:07:07 435.465 / 435.565
YUBILEINY 25 Jan 01:53:55 02:02:20 53° 271° (W) 02:10:42 435.215
Oscar 19 25 Jan 02:03:18 02:08:25 64° 286° (WNW) 02:13:29 437.125/150
MOZHAYETS 4 25 Jan 02:10:28 02:14:15 26° 68° (ENE) 02:18:03
RS-15 25 Jan 02:18:33 02:27:50 24° 338° (NNW) 02:37:15 29.354- 29.394
ISS 25 Jan 02:19:38 02:22:32 29° 30° (NNE) 02:25:25 145.825
ITUPSAT 1 25 Jan 02:28:15 02:32:56 60° 259° (W) 02:37:41 437.325
CUSAT 1 25 Jan 02:30:53 02:36:18 70° 95° (E) 02:43:18 437.405
DANDE 25 Jan 02:33:21 02:36:02 16° 80° (E) 02:39:08 436.750
AIST 2 25 Jan 02:35:29 02:39:10 28° 51° (NE) 02:42:50 435.215
M-CUBED/EXP-1 PRIME 25 Jan 02:39:31 02:43:02 26° 66° (ENE) 02:46:21 437.505
Cosmos 2491 25 Jan 02:42:58 02:51:15 48° 284° (WNW) 02:59:37 435.465 / 435.565
AO-7 25 Jan 02:46:00 02:52:50 27° 95° (E) 02:59:38 29.400- 29.500
STARS 25 Jan 02:55:10 02:55:58 10° 62° (ENE) 02:56:46 437.465
ITAMSAT 1 25 Jan 02:57:23 03:02:19 41° 99° (E) 03:07:14 435.822/435.867
Gurwin Techsat 1B 25 Jan 02:58:33 03:03:26 38° 291° (WNW) 03:08:18 435.225
BEESAT 25 Jan 03:00:14 03:04:16 27° 264° (W) 03:08:20 436.000
SWISSCUBE 25 Jan 03:02:45 03:06:31 23° 265° (W) 03:10:20 437.505
CUBESAT XI-V 25 Jan 03:10:47 03:13:55 18° 65° (ENE) 03:17:03 437.345
AUBIESAT-1 25 Jan 03:11:11 03:15:11 47° 69° (ENE) 03:18:55 437.475
PHONESAT 2.4 25 Jan 03:24:39 03:26:51 70° 196° (SSW) 03:29:04 2401.200-2431.200
MOZHAYETS 4 25 Jan 03:47:20 03:51:17 28° 264° (W) 03:55:17
KKS-1 25 Jan 03:48:38 03:53:04 86° 252° (WSW) 03:57:32 437.445
Cosmos 2504 25 Jan 03:49:15 03:52:06 13° 282° (WNW) 03:54:55 435.465 / 435.565
ISS 25 Jan 03:56:06 03:58:59 29° 226° (SW) 04:01:51 145.825
DANDE 25 Jan 04:13:48 04:17:52 44° 287° (WNW) 04:23:19 436.750
M-CUBED/EXP-1 PRIME 25 Jan 04:13:52 04:17:24 25° 258° (WSW) 04:20:46 437.505
AIST 2 25 Jan 04:13:57 04:17:35 28° 247° (WSW) 04:21:10 435.215
CUSAT 1 25 Jan 04:15:04 04:19:12 19° 299° (WNW) 04:23:57 437.405
STARS 25 Jan 04:27:20 04:31:41 72° 259° (WSW) 04:36:04 437.465
BRITE-PL 25 Jan 04:37:06 04:41:19 33° 96° (E) 04:45:15 437.365/2234.400
ITAMSAT 1 25 Jan 04:37:26 04:41:30 23° 295° (WNW) 04:45:33 435.822/435.867
AO-7 25 Jan 04:37:50 04:46:02 63° 293° (WNW) 04:54:11 29.400- 29.500
RS-15 25 Jan 04:37:58 04:46:44 21° 15° (NNE) 04:55:24 29.354- 29.394
CUBESAT XI-V 25 Jan 04:46:23 04:50:54 46° 261° (W) 04:55:26 437.345
GONETS M04 25 Jan 04:47:10 04:52:07 16° 62° (ENE) 04:57:03
AUBIESAT-1 25 Jan 04:47:43 04:49:42 13° 261° (W) 04:51:37 437.475
O/OREOS (USA 219) 25 Jan 04:49:33 04:53:35 34° 105° (ESE) 04:57:38 437.305
HORYU 2 25 Jan 04:50:58 04:54:10 19° 94° (E) 04:57:21 437.375
PHONESAT 2.4 25 Jan 04:59:25 05:00:14 11° 211° (SSW) 05:01:02 2401.200-2431.200
NOAA 15 25 Jan 05:21:21 05:24:37 16° 92° (E) 05:27:52 137.62
STRAND 1 25 Jan 05:25:03 05:27:53 15° 62° (ENE) 05:30:41 437.568
Cubesat XI-IV 25 Jan 05:30:48 05:34:38 20° 93° (E) 05:38:26 437.490
Cosmos 2499 25 Jan 05:50:32 05:57:17 45° 77° (ENE) 06:04:01 435.465 / 435.565
GOMX 1 25 Jan 05:51:54 05:56:13 84° 103° (ESE) 06:00:22 467.674
SO-50 25 Jan 05:52:47 05:56:51 29° 113° (ESE) 06:00:53 436.795
LilacSat-2 25 Jan 06:01:47 06:05:30 43° 99° (E) 06:09:12 437.200
DOVE 4 25 Jan 06:04:04 06:07:57 39° 98° (E) 06:11:52 437.250
BRITE-PL 25 Jan 06:16:04 06:19:34 21° 294° (WNW) 06:22:52 437.365/2234.400
NOAA 18 25 Jan 06:17:19 06:21:59 28° 96° (E) 06:26:38 137.9125
CUTE-I 25 Jan 06:24:38 06:29:59 66° 102° (ESE) 06:35:17 437.470
HORYU 2 25 Jan 06:26:42 06:30:48 37° 289° (WNW) 06:34:53 437.375
HO-68 25 Jan 06:27:45 06:31:49 16° 90° (E) 06:35:50 435.675
O/OREOS (USA 219) 25 Jan 06:29:37 06:33:03 21° 301° (WNW) 06:36:30 437.305
AO-7 25 Jan 06:33:31 06:37:08 14° 313° (NW) 06:40:46 29.400- 29.500
GONETS M04 25 Jan 06:41:30 06:50:24 81° 83° (E) 06:59:16
CUTE 1.7 + AOD 2 25 Jan 06:44:28 06:46:30 13° 91° (E) 06:48:31 437.475
RS-15 25 Jan 06:51:38 07:03:31 48° 46° (NE) 07:14:56 29.354- 29.394
CINEMA 3 25 Jan 06:53:57 06:57:47 31° 97° (E) 07:01:43 145.822/145.860
NOAA 15 25 Jan 06:59:32 07:04:45 58° 287° (WNW) 07:09:54 137.62
STRAND 1 25 Jan 07:01:25 07:06:28 65° 258° (WSW) 07:11:34 437.568
Cubesat XI-IV 25 Jan 07:09:47 07:14:55 49° 289° (WNW) 07:20:03 437.490
COMPASS 1 25 Jan 07:10:54 07:11:31 10° 90° (E) 07:12:09 437.405
CANX-2 25 Jan 07:13:18 07:17:12 33° 97° (E) 07:21:05 2200.000
SEEDS 25 Jan 07:13:44 07:16:45 19° 93° (E) 07:19:44 437.485
CUBEBUG 2 25 Jan 07:14:26 07:16:20 12° 91° (E) 07:18:16 437.445
UWE-3 25 Jan 07:31:39 07:33:25 12° 91° (E) 07:35:12 435.000/436.395/437.385
SO-50 25 Jan 07:33:01 07:37:14 32° 309° (NW) 07:41:25 436.795
LilacSat-2 25 Jan 07:37:35 07:39:23 13° 294° (WNW) 07:41:10 437.200
PRISM 25 Jan 07:38:15 07:40:31 14° 65° (ENE) 07:42:46 437.425
DOVE 4 25 Jan 07:42:55 07:45:21 15° 294° (WNW) 07:47:47 437.250
Cosmos 2499 25 Jan 07:44:15 07:50:02 28° 275° (W) 07:55:52 435.465 / 435.565
NOAA 18 25 Jan 07:57:43 08:02:39 36° 292° (WNW) 08:07:34 137.9125
Oscar 11 25 Jan 08:04:16 08:06:20 13° 91° (E) 08:08:23 145.826/435.025
CUTE-I 25 Jan 08:06:16 08:09:26 16° 298° (WNW) 08:12:37 437.470
HO-68 25 Jan 08:13:05 08:20:18 85° 287° (WNW) 08:27:27 435.675
TIGRISAT 25 Jan 08:17:35 08:18:32 11° 63° (ENE) 08:19:30 435.000
CUTE 1.7 + AOD 2 25 Jan 08:18:27 08:22:35 49° 286° (WNW) 08:26:42 437.475
CINEMA 3 25 Jan 08:31:34 08:34:44 21° 291° (WNW) 08:37:59 145.822/145.860
ANTELSAT 25 Jan 08:32:14 08:35:00 17° 66° (ENE) 08:37:47 437.575/2403.000
PCSat 25 Jan 08:34:49 08:40:09 54° 58° (ENE) 08:45:27 145.827
GONETS M04 25 Jan 08:40:21 08:46:04 19° 281° (W) 08:51:49
COMPASS 1 25 Jan 08:43:17 08:47:26 59° 284° (WNW) 08:51:31 437.405
FUNcube-1 25 Jan 08:45:53 08:50:09 44° 99° (E) 08:54:29 145.935
SEEDS 25 Jan 08:48:40 08:52:29 33° 289° (WNW) 08:56:17 437.485
CUBEBUG 2 25 Jan 08:48:54 08:53:14 56° 285° (WNW) 08:57:41 437.445
AAUSAT CUBESAT 2 25 Jan 08:48:55 08:53:04 67° 284° (WNW) 08:57:10 437.432
CANX-2 25 Jan 08:49:41 08:52:49 20° 292° (WNW) 08:55:56 2200.000
RS-15 25 Jan 09:04:28 09:16:13 55° 249° (WSW) 09:27:30 29.354- 29.394
UWE-3 25 Jan 09:05:47 09:10:10 58° 285° (WNW) 09:14:38 435.000/436.395/437.385
PRISM 25 Jan 09:11:24 09:15:24 45° 260° (W) 09:19:25 437.425
ZACube-1 25 Jan 09:12:05 09:16:33 84° 282° (WNW) 09:21:05 437.345
DELFI C3 25 Jan 09:18:19 09:21:46 28° 96° (E) 09:25:12 145.870
JAS-2 25 Jan 09:28:29 09:33:07 28° 64° (ENE) 09:38:11 435.910
Oscar 11 25 Jan 09:38:30 09:42:44 50° 286° (WNW) 09:46:57 145.826/435.025
UNISAT 6 25 Jan 09:38:47 09:43:01 82° 255° (WSW) 09:47:19 437.425
TIGRISAT 25 Jan 09:50:27 09:54:38 65° 258° (WSW) 09:58:53 435.000
QB50P1 25 Jan 10:00:39 10:03:03 15° 66° (ENE) 10:05:27 145.935-145.965
HO-68 25 Jan 10:02:55 10:06:57 16° 305° (NW) 10:11:00 435.675
POLYITAN 1 25 Jan 10:06:11 10:08:58 17° 66° (ENE) 10:11:44 437.675
QB50P2 25 Jan 10:07:23 10:10:23 19° 67° (ENE) 10:13:23 145.880/145.840
ANTELSAT 25 Jan 10:07:27 10:11:23 38° 262° (W) 10:15:23 437.575/2403.000
HUMSAT D 25 Jan 10:10:27 10:14:45 66° 101° (ESE) 10:19:01 437.325/437.525
PCSat 25 Jan 10:19:17 10:23:06 20° 254° (WSW) 10:26:53 145.827
FUNcube-1 25 Jan 10:23:12 10:26:01 17° 294° (WNW) 10:28:52 145.935
POPSAT HIP 1 25 Jan 10:26:47 10:30:22 28° 70° (ENE) 10:33:58 437.405
DUCHIFAT 1 25 Jan 10:30:38 10:34:08 27° 70° (ENE) 10:37:38 145.980
NANOSAT C BR1 25 Jan 10:38:46 10:42:35 36° 72° (ENE) 10:46:26 145.865
BUGSAT 1 25 Jan 10:44:28 10:46:22 13° 65° (ENE) 10:48:16 437.445
DELFI C3 25 Jan 10:53:28 10:56:23 20° 292° (WNW) 10:59:17 145.870
ESTCUBE 1 25 Jan 10:56:36 11:00:22 25° 95° (E) 11:04:06 437.505/2401.250
Cosmos 2491 25 Jan 10:59:48 11:04:45 16° 62° (ENE) 11:09:40 435.465 / 435.565
BY70-1 25 Jan 11:00:32 11:03:32 49° 100° (E) 11:06:17 436.1900
JAS-2 25 Jan 11:13:02 11:18:00 37° 264° (W) 11:23:30 435.910
CUBEBUG 1 25 Jan 11:16:09 11:19:37 23° 95° (E) 11:23:04 437.445
QB50P1 25 Jan 11:34:28 11:38:26 43° 261° (W) 11:42:27 145.935-145.965
AO-85 25 Jan 11:36:24 11:40:02 22° 112° (ESE) 11:43:29 145.980
POLYITAN 1 25 Jan 11:40:35 11:44:27 36° 262° (W) 11:48:20 437.675
Oscar 19 25 Jan 11:41:21 11:44:59 20° 64° (ENE) 11:48:38 437.125/150
QB50P2 25 Jan 11:42:09 11:45:56 33° 263° (W) 11:49:45 145.880/145.840
AISAT 25 Jan 11:46:58 11:50:56 32° 98° (E) 11:54:51 437.250
HUMSAT D 25 Jan 11:48:33 11:49:46 11° 297° (WNW) 11:50:59 437.325/437.525
